Volver al catálogo

STARLINK-31669

ActivoComunicacionesVLEO
NORAD 59515·PAYLOAD·🇺🇸 United States

Lanzado Apr 17, 2024 desde Cape Canaveral Space Force Station

Loading…

Próximos Pases (próximas 24 horas)

TLE

ActualizadoSource: CelesTrak SupGP

Época: Sep 14, 2026, 20:56 UTC

1 59515C 24073E   26257.87270833 -.00027119  00000+0 -98223-3 0  2576
2 59515  43.0008 329.3783 0001405 267.8355  14.9595 15.27592990    16

Sigue STARLINK-31669 en tiempo real con AllMySat

Download on the App Store